{"data":{"norad_id":67266,"intl_designator":"2025-313U","name":"SITRO-AIS-65","alt_names":[],"object_type":"PAYLOAD","status":"ACTIVE","operator":null,"country":"CIS","launch_date":"2025-12-28","launch_site_code":"VOSTO","launch_vehicle":null,"mission":null,"orbit_class":"UNKNOWN","rcs_meters":null,"size_class":null,"mass_kg":null,"dimensions":null,"purposes":[],"wikipedia_slug":null,"has_3d_model":false,"image_url":null,"decayed_at":null,"tle_current":{"epoch":"2026-09-20T04:16:39.488448Z","epoch_age_seconds":130885,"freshness":"FRESH","line1":"1 67266U 25313U   26263.17823482  .00005622  00000+0  22857-3 0  9996","line2":"2 67266  97.3881 336.6210 0014476  34.6191 325.5986 15.24851616 40429","mean_motion":15.24851616,"eccentricity":0.0014476,"inclination_deg":97.3881,"raan_deg":336.621,"arg_perigee_deg":34.6191,"mean_anomaly_deg":325.5986,"bstar":0.00022857,"rev_number":4042,"period_min":94.435418167272,"perigee_km":481.28694132422,"apogee_km":501.17513566927,"semimajor_km":6869.3680384967,"source":"CELESTRAK","updated_at":"2026-09-21T09:00:16.515982Z"}}}